FW8999 Weather Reports


Display with metric or nautical units.
time (UTC)temp
F
wind
direction
speed
MPH
gust
MPH
rain 1hr
in
rain 24hr
in
rain mn
in
humidity
%
barometer
mb
20260505124943 62 358 0.0 0.0 0.00 0.00 0.00 63 1016.6
20260505123942 60 0 0.0 0.0 0.00 0.00 0.00 66 1016.9
20260505122940 58 354 0.0 0.0 0.00 0.00 0.00 67 1016.8
20260505121940 56 358 0.0 0.0 0.00 0.00 0.00 72 1016.6
20260505120938 53 11 0.0 0.0 0.00 0.00 0.00 76 1016.9
20260505115934 50 34 0.0 0.0 0.00 0.00 0.00 83 1016.6
20260505114929 47 34 0.0 0.0 0.00 0.00 0.00 85 1016.3
20260505113927 46 30 0.0 0.0 0.00 0.00 0.00 86 1016.9
20260505112926 45 27 0.0 0.0 0.00 0.00 0.00 89 1017.0
20260505111925 44 26 0.0 0.0 0.00 0.00 0.00 90 1016.9
20260505110922 43 31 0.0 0.0 0.00 0.00 0.00 90 1017.0
20260505101914 42 27 0.0 0.0 0.00 0.00 0.00 92 1016.9
20260505100910 42 27 0.0 0.0 0.00 0.00 0.00 91 1017.0
20260505095908 42 27 0.0 0.0 0.00 0.00 0.00 91 1017.0
20260505094908 42 26 0.0 0.0 0.00 0.00 0.00 91 1016.8
20260505093907 43 26 0.0 0.0 0.00 0.00 0.00 90 1017.0
20260505092907 43 13 0.0 0.0 0.00 0.00 0.00 90 1017.0
20260505091902 43 18 0.0 0.0 0.00 0.00 0.00 90 1017.0
20260505090858 44 24 0.0 0.0 0.00 0.00 0.00 90 1017.0
20260505085853 44 353 0.0 0.0 0.00 0.00 0.00 89 1016.8
20260505084848 44 352 0.0 0.0 0.00 0.00 0.00 88 1017.0
20260505083844 44 357 0.0 0.0 0.00 0.00 0.00 87 1016.9
20260505082843 45 354 0.0 0.0 0.00 0.00 0.00 86 1017.0
20260505081842 46 358 0.0 0.0 0.00 0.00 0.00 84 1017.2
20260505080841 47 343 0.0 0.0 0.00 0.00 0.00 82 1017.0
20260505075839 53 349 0.0 0.0 0.00 0.00 0.00 74 1017.1
20260505074839 54 110 0.0 0.0 0.00 0.00 0.00 67 1017.0
20260505073839 55 327 0.0 0.0 0.00 0.00 0.00 67 1017.2
20260505072840 55 266 0.0 1.0 0.00 0.00 0.00 66 1017.3
20260505071838 55 19 0.0 0.0 0.00 0.00 0.00 66 1017.2
20260505070833 55 263 0.0 0.0 0.00 0.00 0.00 65 1017.1
20260505065830 55 0 0.0 0.0 0.00 0.00 0.00 66 1017.2
20260505064830 55 6 0.0 0.0 0.00 0.00 0.00 66 1017.1
20260505063825 55 17 0.0 0.0 0.00 0.00 0.00 66 1017.5
20260505062823 55 188 0.0 0.0 0.00 0.00 0.00 65 1017.4
20260505061823 55 149 0.0 0.0 0.00 0.00 0.00 65 1017.3
20260505060819 54 13 0.0 0.0 0.00 0.00 0.00 68 1017.3
20260505055817 51 234 0.0 0.0 0.00 0.00 0.00 72 1017.4
20260505054817 49 182 0.0 0.0 0.00 0.00 0.00 77 1017.3
20260505053812 48 223 0.0 0.0 0.00 0.00 0.00 80 1017.2
20260505052811 46 21 0.0 0.0 0.00 0.00 0.00 85 1017.1
20260505051810 46 188 0.0 0.0 0.00 0.00 0.00 85 1017.1
20260505050806 46 62 0.0 0.0 0.00 0.00 0.00 85 1017.2
20260505040803 48 352 0.0 0.0 0.00 0.00 0.00 85 1016.7
20260505035803 48 24 0.0 0.0 0.00 0.00 0.00 82 1016.8
20260505034802 48 54 1.0 2.0 0.00 0.00 0.00 83 1016.7
20260505033802 49 38 0.0 0.0 0.00 0.00 0.00 80 1016.3
20260505032757 49 32 0.0 0.0 0.00 0.00 0.00 78 1016.2
20260505031756 49 19 0.0 0.0 0.00 0.00 0.00 79 1016.3
20260505030756 50 12 0.0 0.0 0.00 0.00 0.00 78 1016.2
20260505025753 51 316 0.0 0.0 0.00 0.00 0.00 79 1016.3
20260505024749 51 319 0.0 0.0 0.00 0.00 0.00 79 1016.0
20260505023749 51 318 0.0 0.0 0.00 0.00 0.00 75 1016.3
20260505022749 51 319 0.0 0.0 0.00 0.00 0.00 77 1016.2
20260505021748 53 318 0.0 0.0 0.00 0.00 0.00 76 1016.2
20260505020747 53 319 0.0 0.0 0.00 0.00 0.00 76 1016.1
20260505015745 53 318 0.0 0.0 0.00 0.00 0.00 71 1016.1
20260505014745 54 318 0.0 0.0 0.00 0.00 0.00 67 1016.2
20260505013745 55 10 0.0 0.0 0.00 0.00 0.00 68 1016.0
20260505012740 55 10 0.0 0.0 0.00 0.00 0.00 68 1016.0
20260505011739 56 50 0.0 0.0 0.00 0.00 0.00 68 1015.7
20260505010737 56 50 0.0 0.0 0.00 0.00 0.00 71 1015.9
20260505005737 57 54 0.0 0.0 0.00 0.00 0.00 67 1015.7
20260505004737 57 54 0.0 0.0 0.00 0.00 0.00 63 1015.3
20260505003736 57 54 0.0 0.0 0.00 0.00 0.00 62 1015.1
20260505002736 58 54 0.0 0.0 0.00 0.00 0.00 60 1015.1
20260505001737 58 54 0.0 0.0 0.00 0.00 0.00 57 1014.7
20260505000736 60 54 0.0 0.0 0.00 0.00 0.00 52 1014.7
20260504235731 61 53 0.0 0.0 0.00 0.00 0.00 55 1014.5
20260504234730 62 53 0.0 0.0 0.00 0.00 0.00 49 1014.4
20260504233729 64 53 1.0 1.0 0.00 0.00 0.00 49 1014.3
20260504232728 65 2 1.0 1.0 0.00 0.00 0.00 44 1014.0
20260504231728 65 341 1.0 1.0 0.00 0.00 0.00 42 1013.9
20260504230726 66 26 0.0 0.0 0.00 0.00 0.00 43 1014.0
20260504225723 67 250 0.0 0.0 0.00 0.00 0.00 40 1014.0
20260504224722 67 359 0.0 0.0 0.00 0.00 0.00 39 1013.7
20260504223721 68 352 0.0 0.0 0.00 0.00 0.00 38 1013.7
20260504222720 69 312 0.0 0.0 0.00 0.00 0.00 37 1013.5
20260504221720 68 340 1.0 2.0 0.00 0.00 0.00 38 1013.5
20260504220719 69 287 1.0 1.0 0.00 0.00 0.00 37 1013.8
20260504215720 68 37 3.0 3.0 0.00 0.00 0.00 38 1013.6
20260504214718 68 25 3.0 3.0 0.00 0.00 0.00 37 1013.7
20260504213717 68 262 3.0 3.0 0.00 0.00 0.00 37 1013.6
20260504212717 68 348 0.0 1.0 0.00 0.00 0.00 39 1013.7
20260504211717 69 26 2.0 2.0 0.00 0.00 0.00 38 1013.7
20260504210716 68 312 3.0 3.0 0.00 0.00 0.00 37 1013.7
20260504205716 68 229 2.0 3.0 0.00 0.00 0.00 40 1013.8
20260504204712 68 334 0.0 0.0 0.00 0.00 0.00 41 1013.7
20260504203708 69 287 1.0 2.0 0.00 0.00 0.00 39 1013.5
20260504202705 68 251 1.0 2.0 0.00 0.00 0.00 40 1013.5
20260504201700 68 59 1.0 2.0 0.00 0.00 0.00 41 1013.7
20260504200655 68 288 0.0 0.0 0.00 0.00 0.00 40 1013.7
20260504195653 68 0 2.0 3.0 0.00 0.00 0.00 40 1013.8
20260504194652 67 241 2.0 2.0 0.00 0.00 0.00 41 1013.8
20260504193650 67 238 1.0 1.0 0.00 0.00 0.00 43 1014.0
20260504192646 67 25 3.0 3.0 0.00 0.00 0.00 43 1014.3
20260504191642 66 316 1.0 1.0 0.00 0.00 0.00 45 1014.2
20260504190640 66 7 5.0 6.0 0.00 0.00 0.00 46 1014.5
20260504185639 66 109 0.0 1.0 0.00 0.00 0.00 47 1014.7
20260504184638 64 338 1.0 2.0 0.00 0.00 0.00 47 1014.7
20260504183636 64 350 2.0 2.0 0.00 0.00 0.00 48 1014.9
20260504182631 64 345 4.0 5.0 0.00 0.00 0.00 49 1014.9
20260504181631 62 346 2.0 2.0 0.00 0.00 0.00 51 1014.9
20260504180628 62 355 3.0 3.0 0.00 0.00 0.00 51 1015.1
20260504175629 61 264 1.0 2.0 0.00 0.00 0.00 54 1015.1
20260504174624 59 8 3.0 3.0 0.00 0.00 0.00 54 1015.4
20260504173623 59 102 3.0 3.0 0.00 0.00 0.00 55 1015.7
20260504172622 59 13 0.0 1.0 0.00 0.00 0.00 59 1015.5
20260504171621 60 351 4.0 5.0 0.00 0.00 0.00 53 1015.7
20260504170620 60 350 2.0 2.0 0.00 0.00 0.00 56 1015.2
20260504150554 62 55 2.0 2.0 0.00 0.00 0.00 49 1014.5